| time (UTC) | temp F | wind direction | speed MPH | gust MPH | rain 1hr in | rain 24hr in | rain mn in | humidity % | barometer mb |
| 20260506073003 | 50 | 0 | 0.0 | 0.0 | 0.00 | 0.20 | 0.00 | 94 | 1017.5 |
| 20260506072403 | 50 | 0 | 0.0 | 0.0 | 0.00 | 0.21 | 0.00 | 94 | 1017.5 |
| 20260506071803 | 50 | 181 | 0.0 | 1.0 | 0.00 | 0.21 | 0.00 | 94 | 1017.4 |
| 20260506071224 | 50 | 0 | 0.0 | 0.0 | 0.00 | 0.22 | 0.00 | 94 | 1017.3 |
| 20260506070603 | 50 | 0 | 0.0 | 0.0 | 0.00 | 0.23 | 0.00 | 94 | 1017.2 |
| 20260506062403 | 50 | 0 | 0.0 | 0.0 | 0.00 | 0.30 | 0.24 | 94 | 1017.0 |
| 20260506061803 | 50 | 181 | 0.0 | 1.0 | 0.00 | 0.31 | 0.24 | 94 | 1017.1 |
| 20260506061224 | 50 | 181 | 0.0 | 1.0 | 0.00 | 0.32 | 0.24 | 94 | 1017.1 |
| 20260506060603 | 50 | 0 | 0.0 | 0.0 | 0.00 | 0.32 | 0.24 | 94 | 1017.0 |
| 20260506051224 | 50 | 0 | 0.0 | 0.0 | 0.00 | 0.43 | 0.24 | 94 | 1016.5 |
| 20260506050603 | 50 | 0 | 0.0 | 0.0 | 0.00 | 0.44 | 0.24 | 94 | 1016.4 |
| 20260506044803 | 50 | 181 | 0.0 | 2.0 | 0.00 | 0.46 | 0.24 | 94 | 1016.2 |
| 20260506044224 | 50 | 181 | 0.0 | 2.0 | 0.00 | 0.47 | 0.24 | 94 | 1016.3 |
| 20260506043603 | 50 | 0 | 0.0 | 0.0 | 0.00 | 0.48 | 0.24 | 94 | 1016.2 |
| 20260506043003 | 50 | 0 | 0.0 | 0.0 | 0.00 | 0.49 | 0.24 | 94 | 1016.2 |
| 20260506042403 | 50 | 0 | 0.0 | 0.0 | 0.00 | 0.51 | 0.24 | 94 | 1016.1 |
| 20260506041803 | 50 | 0 | 0.0 | 0.0 | 0.00 | 0.51 | 0.24 | 94 | 1016.2 |
| 20260506041203 | 50 | 0 | 0.0 | 0.0 | 0.00 | 0.52 | 0.24 | 94 | 1016.1 |
| 20260506040624 | 50 | 0 | 0.0 | 0.0 | 0.00 | 0.53 | 0.24 | 94 | 1016.1 |
| 20260506040003 | 50 | 0 | 0.0 | 0.0 | 0.00 | 0.54 | 0.24 | 94 | 1015.7 |
| 20260506035424 | 50 | 0 | 0.0 | 0.0 | 0.00 | 0.55 | 0.24 | 94 | 1015.8 |
| 20260506034803 | 50 | 0 | 0.0 | 0.0 | 0.00 | 0.56 | 0.24 | 94 | 1015.8 |
| 20260506034203 | 50 | 181 | 0.0 | 2.0 | 0.00 | 0.57 | 0.24 | 94 | 1015.5 |
| 20260506033624 | 50 | 181 | 0.0 | 2.0 | 0.00 | 0.59 | 0.24 | 94 | 1015.4 |
| 20260506033003 | 50 | 0 | 0.0 | 0.0 | 0.00 | 0.60 | 0.24 | 94 | 1015.3 |
| 20260506032403 | 50 | 0 | 0.0 | 0.0 | 0.00 | 0.62 | 0.24 | 94 | 1015.4 |
| 20260506031824 | 50 | 0 | 0.0 | 0.0 | 0.00 | 0.63 | 0.24 | 93 | 1015.5 |
| 20260506031203 | 50 | 0 | 0.0 | 0.0 | 0.00 | 0.64 | 0.24 | 93 | 1015.6 |
| 20260506030624 | 50 | 0 | 0.0 | 0.0 | 0.00 | 0.67 | 0.24 | 93 | 1015.5 |
| 20260506030003 | 50 | 0 | 0.0 | 0.0 | 0.00 | 0.67 | 0.24 | 93 | 1015.5 |
| 20260506025403 | 50 | 0 | 0.0 | 0.0 | 0.00 | 0.69 | 0.24 | 93 | 1015.3 |
| 20260506024824 | 50 | 0 | 0.0 | 0.0 | 0.00 | 0.70 | 0.24 | 93 | 1015.1 |
| 20260506024204 | 51 | 181 | 0.0 | 2.0 | 0.00 | 0.71 | 0.24 | 93 | 1015.0 |
| 20260506023603 | 50 | 181 | 0.0 | 2.0 | 0.00 | 0.71 | 0.24 | 93 | 1015.1 |
| 20260506023003 | 50 | 181 | 0.0 | 1.0 | 0.00 | 0.72 | 0.24 | 93 | 1015.0 |
| 20260506022403 | 50 | 181 | 0.0 | 1.0 | 0.00 | 0.74 | 0.24 | 93 | 1014.9 |
| 20260506021803 | 50 | 181 | 0.0 | 2.0 | 0.00 | 0.75 | 0.24 | 93 | 1014.9 |
| 20260506021203 | 50 | 181 | 0.0 | 4.0 | 0.00 | 0.76 | 0.24 | 93 | 1014.8 |
| 20260506020603 | 50 | 181 | 1.0 | 4.0 | 0.00 | 0.76 | 0.24 | 93 | 1014.8 |
| 20260506020003 | 51 | 181 | 2.0 | 4.0 | 0.00 | 0.78 | 0.24 | 93 | 1014.5 |
| 20260506015403 | 51 | 181 | 1.0 | 5.0 | 0.00 | 0.78 | 0.24 | 93 | 1014.5 |
| 20260506014803 | 51 | 184 | 2.0 | 5.0 | 0.00 | 0.79 | 0.24 | 93 | 1014.5 |
| 20260506014203 | 51 | 196 | 2.0 | 5.0 | 0.00 | 0.80 | 0.24 | 94 | 1014.4 |
| 20260506013624 | 51 | 213 | 1.0 | 5.0 | 0.00 | 0.82 | 0.24 | 94 | 1014.5 |
| 20260506013003 | 50 | 225 | 1.0 | 4.0 | 0.00 | 0.83 | 0.24 | 94 | 1014.5 |
| 20260506012403 | 50 | 225 | 1.0 | 3.0 | 0.00 | 0.84 | 0.24 | 94 | 1014.7 |
| 20260506011803 | 50 | 225 | 1.0 | 3.0 | 0.00 | 0.85 | 0.24 | 93 | 1014.7 |
| 20260506011224 | 50 | 0 | 0.0 | 0.0 | 0.00 | 0.86 | 0.24 | 93 | 1014.7 |
| 20260506010603 | 50 | 225 | 1.0 | 3.0 | 0.00 | 0.87 | 0.24 | 93 | 1014.8 |
| 20260506010003 | 50 | 225 | 1.0 | 4.0 | 0.00 | 0.89 | 0.24 | 93 | 1014.7 |
| 20260506005403 | 50 | 225 | 1.0 | 4.0 | 0.00 | 0.90 | 0.24 | 93 | 1014.6 |
| 20260506004824 | 50 | 225 | 1.0 | 4.0 | 0.00 | 0.91 | 0.24 | 93 | 1014.5 |
| 20260506004203 | 50 | 225 | 1.0 | 4.0 | 0.00 | 0.92 | 0.24 | 93 | 1014.5 |
| 20260506003603 | 50 | 225 | 1.0 | 3.0 | 0.00 | 0.94 | 0.24 | 93 | 1014.4 |
| 20260506003003 | 50 | 225 | 1.0 | 3.0 | 0.00 | 0.97 | 0.24 | 93 | 1014.3 |
| 20260506002403 | 50 | 225 | 0.0 | 3.0 | 0.00 | 0.98 | 0.24 | 93 | 1014.4 |
| 20260506001803 | 50 | 224 | 1.0 | 5.0 | 0.00 | 0.99 | 0.24 | 93 | 1014.2 |
| 20260506001203 | 50 | 223 | 1.0 | 5.0 | 0.00 | 1.01 | 0.24 | 93 | 1014.2 |
| 20260506000603 | 51 | 221 | 0.0 | 4.0 | 0.00 | 1.02 | 0.24 | 93 | 1014.3 |
| 20260506000003 | 51 | 226 | 2.0 | 4.0 | 0.00 | 1.03 | 0.24 | 93 | 1014.2 |
| 20260505235403 | 51 | 255 | 2.0 | 5.0 | 0.00 | 1.03 | 0.24 | 93 | 1014.1 |
| 20260505234803 | 51 | 298 | 0.0 | 2.0 | 0.00 | 1.06 | 0.24 | 93 | 1014.2 |
| 20260505234203 | 51 | 298 | 0.0 | 4.0 | 0.00 | 1.07 | 0.24 | 93 | 1014.3 |
| 20260505233603 | 50 | 298 | 0.0 | 1.0 | 0.00 | 1.07 | 0.24 | 93 | 1014.2 |
| 20260505233024 | 50 | 298 | 0.0 | 1.0 | 0.00 | 1.07 | 0.24 | 92 | 1014.3 |
| 20260505232403 | 50 | 298 | 0.0 | 2.0 | 0.00 | 1.08 | 0.24 | 92 | 1014.3 |
| 20260505231803 | 50 | 298 | 0.0 | 4.0 | 0.00 | 1.08 | 0.24 | 92 | 1014.3 |
| 20260505231203 | 50 | 298 | 0.0 | 4.0 | 0.00 | 1.08 | 0.24 | 92 | 1014.3 |
| 20260505230624 | 51 | 300 | 1.0 | 5.0 | 0.00 | 1.10 | 0.24 | 92 | 1014.3 |
| 20260505230003 | 50 | 301 | 1.0 | 5.0 | 0.00 | 1.13 | 0.24 | 92 | 1014.4 |
| 20260505225403 | 50 | 306 | 0.0 | 4.0 | 0.00 | 1.15 | 0.24 | 92 | 1014.4 |
| 20260505224803 | 50 | 306 | 0.0 | 4.0 | 0.00 | 1.17 | 0.24 | 92 | 1014.4 |
| 20260505224203 | 50 | 306 | 0.0 | 5.0 | 0.00 | 1.18 | 0.24 | 91 | 1014.4 |
| 20260505223624 | 50 | 306 | 1.0 | 5.0 | 0.00 | 1.18 | 0.24 | 92 | 1014.4 |
| 20260505223003 | 50 | 305 | 1.0 | 5.0 | 0.00 | 1.18 | 0.24 | 92 | 1014.4 |
| 20260505222424 | 50 | 305 | 3.0 | 7.0 | 0.00 | 1.20 | 0.24 | 92 | 1014.5 |
| 20260505221803 | 50 | 312 | 3.0 | 7.0 | 0.00 | 1.21 | 0.24 | 92 | 1014.5 |
| 20260505221203 | 50 | 314 | 2.0 | 7.0 | 0.00 | 1.22 | 0.24 | 91 | 1014.5 |
| 20260505220603 | 50 | 302 | 1.0 | 5.0 | 0.00 | 1.24 | 0.24 | 92 | 1014.5 |
| 20260505220003 | 50 | 272 | 0.0 | 4.0 | 0.00 | 1.25 | 0.24 | 91 | 1014.5 |
| 20260505215403 | 50 | 272 | 0.0 | 4.0 | 0.00 | 1.26 | 0.24 | 91 | 1014.5 |
| 20260505214803 | 50 | 270 | 0.0 | 4.0 | 0.00 | 1.26 | 0.24 | 91 | 1014.5 |
| 20260505214203 | 50 | 270 | 1.0 | 4.0 | 0.00 | 1.28 | 0.24 | 91 | 1014.6 |
| 20260505213603 | 50 | 272 | 1.0 | 4.0 | 0.00 | 1.28 | 0.24 | 92 | 1014.6 |
| 20260505213003 | 50 | 308 | 2.0 | 7.0 | 0.00 | 1.28 | 0.24 | 91 | 1014.7 |
| 20260505212403 | 50 | 303 | 3.0 | 7.0 | 0.00 | 1.29 | 0.24 | 91 | 1014.7 |
| 20260505211803 | 50 | 307 | 3.0 | 7.0 | 0.00 | 1.30 | 0.24 | 91 | 1014.7 |
| 20260505211203 | 50 | 301 | 1.0 | 6.0 | 0.00 | 1.31 | 0.24 | 91 | 1014.7 |
| 20260505210603 | 50 | 259 | 0.0 | 4.0 | 0.00 | 1.33 | 0.24 | 91 | 1014.6 |
| 20260505210003 | 50 | 261 | 1.0 | 4.0 | 0.00 | 1.35 | 0.24 | 90 | 1014.6 |
| 20260505205403 | 50 | 270 | 1.0 | 5.0 | 0.00 | 1.36 | 0.24 | 91 | 1014.6 |
| 20260505204803 | 50 | 251 | 1.0 | 6.0 | 0.00 | 1.36 | 0.24 | 91 | 1014.5 |
| 20260505204203 | 50 | 265 | 1.0 | 6.0 | 0.00 | 1.37 | 0.24 | 91 | 1014.5 |
| 20260505203603 | 51 | 267 | 1.0 | 6.0 | 0.00 | 1.37 | 0.24 | 91 | 1014.4 |
| 20260505203003 | 50 | 285 | 1.0 | 6.0 | 0.00 | 1.37 | 0.24 | 91 | 1014.3 |
| 20260505202403 | 50 | 296 | 2.0 | 7.0 | 0.00 | 1.38 | 0.24 | 90 | 1014.3 |
| 20260505201803 | 51 | 303 | 3.0 | 8.0 | 0.00 | 1.38 | 0.24 | 90 | 1014.4 |
| 20260505201203 | 51 | 303 | 4.0 | 9.0 | 0.00 | 1.39 | 0.24 | 90 | 1014.5 |
| 20260505200603 | 51 | 307 | 4.0 | 9.0 | 0.00 | 1.40 | 0.24 | 89 | 1014.5 |
| 20260505200003 | 51 | 310 | 4.0 | 8.0 | 0.00 | 1.41 | 0.24 | 89 | 1014.5 |
| 20260505195403 | 51 | 297 | 2.0 | 8.0 | 0.00 | 1.44 | 0.24 | 89 | 1014.6 |
| 20260505194803 | 51 | 280 | 1.0 | 6.0 | 0.00 | 1.46 | 0.24 | 89 | 1014.6 |
| 20260505194203 | 51 | 308 | 2.0 | 9.0 | 0.00 | 1.46 | 0.24 | 87 | 1014.6 |
| 20260505193624 | 51 | 313 | 3.0 | 9.0 | 0.00 | 1.47 | 0.24 | 88 | 1014.5 |
| 20260505193003 | 51 | 318 | 4.0 | 8.0 | 0.00 | 1.47 | 0.24 | 88 | 1014.5 |
| 20260505192424 | 50 | 316 | 4.0 | 8.0 | 0.00 | 1.47 | 0.24 | 88 | 1014.4 |
| 20260505191803 | 50 | 314 | 1.0 | 5.0 | 0.00 | 1.47 | 0.24 | 89 | 1014.4 |
| 20260505191203 | 50 | 331 | 2.0 | 7.0 | 0.00 | 1.47 | 0.24 | 90 | 1014.5 |
| 20260505190603 | 50 | 330 | 2.0 | 7.0 | 0.00 | 1.47 | 0.24 | 91 | 1014.4 |
| 20260505190003 | 50 | 316 | 1.0 | 5.0 | 0.00 | 1.47 | 0.24 | 91 | 1014.4 |
| 20260505185403 | 49 | 313 | 2.0 | 6.0 | 0.00 | 1.47 | 0.24 | 91 | 1014.4 |
| 20260505184824 | 49 | 312 | 2.0 | 6.0 | 0.00 | 1.47 | 0.24 | 90 | 1014.3 |
| 20260505184203 | 49 | 312 | 1.0 | 5.0 | 0.00 | 1.47 | 0.24 | 90 | 1014.4 |
| 20260505183603 | 49 | 310 | 2.0 | 6.0 | 0.00 | 1.47 | 0.24 | 91 | 1014.5 |
| 20260505183003 | 49 | 300 | 1.0 | 6.0 | 0.00 | 1.47 | 0.24 | 91 | 1014.5 |
| 20260505182424 | 49 | 286 | 1.0 | 6.0 | 0.00 | 1.47 | 0.24 | 92 | 1014.4 |
| 20260505181824 | 49 | 283 | 1.0 | 6.0 | 0.00 | 1.47 | 0.24 | 91 | 1014.3 |
| 20260505181203 | 48 | 300 | 1.0 | 6.0 | 0.00 | 1.47 | 0.24 | 93 | 1014.3 |
| 20260505180603 | 48 | 304 | 2.0 | 5.0 | 0.00 | 1.47 | 0.24 | 92 | 1014.3 |
| 20260505180003 | 48 | 302 | 2.0 | 6.0 | 0.00 | 1.47 | 0.24 | 92 | 1014.2 |
| 20260505175403 | 48 | 305 | 2.0 | 6.0 | 0.00 | 1.47 | 0.24 | 93 | 1014.2 |
| 20260505174803 | 48 | 305 | 2.0 | 6.0 | 0.00 | 1.47 | 0.24 | 92 | 1014.2 |
| 20260505174203 | 48 | 293 | 2.0 | 6.0 | 0.00 | 1.47 | 0.24 | 92 | 1014.1 |
| 20260505173603 | 49 | 175 | 1.0 | 6.0 | 0.00 | 1.47 | 0.24 | 93 | 1014.0 |
| 20260505173024 | 48 | 141 | 0.0 | 2.0 | 0.00 | 1.47 | 0.24 | 93 | 1013.9 |
| 20260505172403 | 48 | 141 | 0.0 | 2.0 | 0.00 | 1.47 | 0.24 | 92 | 1014.0 |
| 20260505171803 | 48 | 0 | 0.0 | 0.0 | 0.00 | 1.47 | 0.24 | 92 | 1013.9 |
| 20260505171203 | 48 | 0 | 0.0 | 0.0 | 0.00 | 1.47 | 0.24 | 92 | 1014.1 |
| 20260505170603 | 48 | 141 | 0.0 | 2.0 | 0.00 | 1.47 | 0.24 | 92 | 1014.0 |
| 20260505170024 | 48 | 141 | 0.0 | 4.0 | 0.00 | 1.47 | 0.24 | 92 | 1013.9 |
| 20260505165403 | 48 | 141 | 0.0 | 4.0 | 0.00 | 1.47 | 0.24 | 91 | 1014.0 |
| 20260505164803 | 48 | 141 | 0.0 | 1.0 | 0.00 | 1.47 | 0.24 | 91 | 1013.9 |
| 20260505164203 | 47 | 141 | 0.0 | 2.0 | 0.00 | 1.47 | 0.24 | 91 | 1013.9 |
| 20260505163603 | 47 | 141 | 1.0 | 5.0 | 0.00 | 1.47 | 0.24 | 93 | 1013.9 |
| 20260505163003 | 47 | 141 | 1.0 | 5.0 | 0.00 | 1.47 | 0.24 | 92 | 1014.0 |
| 20260505162403 | 47 | 141 | 0.0 | 4.0 | 0.00 | 1.47 | 0.24 | 93 | 1013.9 |
| 20260505161803 | 47 | 141 | 0.0 | 2.0 | 0.00 | 1.47 | 0.24 | 94 | 1013.7 |
| 20260505161203 | 46 | 141 | 1.0 | 4.0 | 0.00 | 1.47 | 0.24 | 93 | 1013.8 |
| 20260505160603 | 46 | 141 | 2.0 | 5.0 | 0.00 | 1.47 | 0.24 | 93 | 1013.6 |
| 20260505153024 | 46 | 141 | 0.0 | 2.0 | 0.01 | 1.47 | 0.24 | 95 | 1013.6 |
| 20260505152403 | 46 | 140 | 0.0 | 2.0 | 0.01 | 1.47 | 0.24 | 95 | 1013.7 |
| 20260505151803 | 46 | 140 | 1.0 | 4.0 | 0.01 | 1.47 | 0.24 | 95 | 1013.6 |
| 20260505151203 | 46 | 140 | 1.0 | 5.0 | 0.01 | 1.47 | 0.24 | 95 | 1013.5 |
| 20260505150603 | 46 | 141 | 2.0 | 7.0 | 0.01 | 1.47 | 0.24 | 95 | 1013.4 |
| 20260505140603 | 45 | 154 | 2.0 | 6.0 | 0.00 | 1.46 | 0.23 | 95 | 1013.0 |
| 20260505124803 | 45 | 131 | 3.0 | 6.0 | 0.00 | 1.46 | 0.23 | 95 | 1012.8 |
| 20260505124203 | 45 | 114 | 3.0 | 6.0 | 0.00 | 1.46 | 0.23 | 95 | 1012.9 |
| 20260505123603 | 45 | 109 | 2.0 | 5.0 | 0.00 | 1.46 | 0.23 | 95 | 1012.8 |
| 20260505123003 | 45 | 109 | 1.0 | 5.0 | 0.00 | 1.46 | 0.23 | 95 | 1012.6 |
| 20260505122403 | 45 | 109 | 1.0 | 5.0 | 0.00 | 1.46 | 0.23 | 95 | 1012.5 |
| 20260505121803 | 45 | 109 | 1.0 | 5.0 | 0.00 | 1.46 | 0.23 | 95 | 1012.5 |
| 20260505121203 | 45 | 109 | 2.0 | 5.0 | 0.00 | 1.46 | 0.23 | 95 | 1012.5 |
| 20260505120603 | 45 | 109 | 1.0 | 5.0 | 0.00 | 1.46 | 0.23 | 95 | 1012.5 |
| 20260505120004 | 45 | 109 | 1.0 | 5.0 | 0.00 | 1.46 | 0.23 | 95 | 1012.4 |
| 20260505115403 | 45 | 109 | 1.0 | 4.0 | 0.00 | 1.46 | 0.23 | 95 | 1012.4 |
| 20260505114803 | 45 | 109 | 1.0 | 5.0 | 0.00 | 1.46 | 0.23 | 95 | 1012.4 |
| 20260505114203 | 45 | 109 | 1.0 | 5.0 | 0.00 | 1.46 | 0.23 | 95 | 1012.3 |
| 20260505113603 | 45 | 109 | 1.0 | 5.0 | 0.01 | 1.46 | 0.23 | 95 | 1012.4 |
| 20260505113003 | 45 | 109 | 1.0 | 5.0 | 0.01 | 1.46 | 0.23 | 95 | 1012.4 |
| 20260505112403 | 45 | 110 | 1.0 | 7.0 | 0.01 | 1.46 | 0.23 | 95 | 1012.5 |
| 20260505111803 | 45 | 113 | 2.0 | 7.0 | 0.01 | 1.46 | 0.23 | 95 | 1012.7 |
| 20260505111203 | 45 | 114 | 1.0 | 5.0 | 0.02 | 1.46 | 0.23 | 95 | 1012.7 |
| 20260505110603 | 45 | 121 | 1.0 | 7.0 | 0.02 | 1.46 | 0.23 | 95 | 1012.7 |
| 20260505101803 | 45 | 130 | 0.0 | 5.0 | 0.05 | 1.45 | 0.22 | 95 | 1012.6 |
| 20260505101203 | 45 | 130 | 1.0 | 4.0 | 0.03 | 1.44 | 0.21 | 95 | 1012.7 |
| 20260505100624 | 45 | 130 | 1.0 | 5.0 | 0.05 | 1.44 | 0.21 | 95 | 1012.8 |
| 20260505100003 | 45 | 130 | 1.0 | 5.0 | 0.05 | 1.44 | 0.21 | 95 | 1012.7 |
| 20260505095403 | 45 | 130 | 0.0 | 4.0 | 0.05 | 1.43 | 0.20 | 95 | 1012.7 |
| 20260505094803 | 45 | 130 | 1.0 | 5.0 | 0.05 | 1.43 | 0.20 | 95 | 1012.6 |
| 20260505094203 | 45 | 127 | 2.0 | 8.0 | 0.06 | 1.43 | 0.20 | 95 | 1012.7 |
| 20260505093603 | 45 | 118 | 1.0 | 8.0 | 0.06 | 1.41 | 0.18 | 95 | 1013.0 |
| 20260505093003 | 45 | 115 | 1.0 | 5.0 | 0.06 | 1.41 | 0.18 | 95 | 1012.9 |
| 20260505092403 | 45 | 115 | 2.0 | 6.0 | 0.06 | 1.40 | 0.17 | 95 | 1013.0 |
| 20260505091824 | 45 | 115 | 1.0 | 6.0 | 0.06 | 1.40 | 0.17 | 95 | 1013.0 |
| 20260505091203 | 45 | 115 | 0.0 | 4.0 | 0.07 | 1.40 | 0.17 | 95 | 1013.2 |
| 20260505090603 | 45 | 115 | 0.0 | 2.0 | 0.06 | 1.39 | 0.16 | 95 | 1013.2 |
| 20260505090003 | 45 | 115 | 0.0 | 5.0 | 0.07 | 1.39 | 0.16 | 95 | 1013.3 |
| 20260505085403 | 45 | 115 | 1.0 | 5.0 | 0.07 | 1.38 | 0.15 | 95 | 1013.1 |
| 20260505084803 | 45 | 115 | 1.0 | 7.0 | 0.08 | 1.38 | 0.15 | 95 | 1013.3 |
| 20260505084203 | 45 | 117 | 2.0 | 7.0 | 0.07 | 1.37 | 0.14 | 95 | 1013.4 |
| 20260505083603 | 45 | 123 | 1.0 | 5.0 | 0.07 | 1.36 | 0.13 | 95 | 1013.4 |
| 20260505083003 | 45 | 124 | 2.0 | 6.0 | 0.08 | 1.36 | 0.13 | 95 | 1013.5 |
| 20260505082403 | 45 | 131 | 2.0 | 6.0 | 0.08 | 1.35 | 0.12 | 95 | 1013.5 |
| 20260505081803 | 45 | 142 | 1.0 | 5.0 | 0.08 | 1.35 | 0.12 | 95 | 1013.6 |
| 20260505081203 | 45 | 142 | 0.0 | 4.0 | 0.08 | 1.33 | 0.10 | 95 | 1013.6 |
| 20260505080603 | 45 | 142 | 1.0 | 5.0 | 0.09 | 1.33 | 0.10 | 95 | 1013.6 |